Showing default

TRANSIT 5E 3, 705

Orbit data source: Space-Track

TRANSIT 5E 3, 705 is a payload satellite owned by USN BuWeps (US) in LEO that was launched on Thu, 05 Dec 1963 UTC via a THOR ABLESTAR launch vehicle from the Air Force Western Test Range (AFWTR). Payload-class satellites include a variety of spacecraft equipped with specific instruments for various scientific and technological missions. These include communications satellites like Starlink; space stations such as the ISS; scientific satellites like the Hubble; Earth observation satellites from companies like Planet Labs, Umbra, and HawkEye 360; GPS; miniature CubeSats for education and research; and military/defense satellites.

Loading next visibility...
Identifier
705, 1963-049C
Orbit
LEO
Country
Flag of USUS
Related business
Manufacturer
APL
Mission
Civil Science
Bus & Motor
TRANSIT 5, Unknown motor
Mass
52 kg wet, 52 kg dry
Launch date (UTC)
1963-12-05 (62 years ago)
Launch vehicle
THOR ABLESTAR
Launch site
Air Force Western Test Range (AFWTR)
Object type
Payload
Rocket body
Debris
Shape & HBR
Oct Cyl + 4 Pan, 1.5 m
Radar Cross Section
0.892 m², Large (>1 m²)

Expand to show TLE details & history
Last TLE update: 21 hours ago

TLE from 21 hours ago
0 TRANSIT 5E 3
1 00705U 63049C   25261.27974602  .00000085  00000-0  12291-3 0  9998
2 00705  89.9138  72.5934 0032511 320.0875 160.0872 13.47630955 35475
Epoch: 2025-09-18T06:42Z
TLE epoch observation values (Epoch: 2025-09-18T06:42:50.056Z)
Latitude
59.78843°
Longitude
154.29394°
Altitude
1,114.041 km
Speed
7.29 km/s
True Right ascension
16h 49m 47s
True Declination
59° 38' 45"
Sunlit
Object was in daylight at epoch
Visualization orbit readout
Latitude
Unknown
Longitude
Unknown
Altitude
Unknown
Speed
Unknown
Apparent Right ascension
Unknown
Apparent Declination
Unknown
Sunlit
N/A
Visualization observer readout
Local Sidereal Time
20:10:47
Azimuth
Unknown
Elevation
Unknown
Doppler factor
Unknown
Orbital elements
Apogee altitude
1,102.282 km
Perigee altitude
1,053.8 km
Semi-major axis
7,456.178 km
Eccentricity
0.00325
Inclination
89.9138°
RAAN
72.5934°
Arg. of periapsis
320.0875°
True anomaly
160.2136°
Mean anomaly
160.0872°
Eccentric anomaly
160.15045°
Mean motion
3.37108 °/min
Orbital period
106.79 mins
BSTAR
0.00012291
Loading maneuver chart data...
Computing Atmospheric mass density...
Loading historical data...
Loading historical data...
Loading historical data...
Loading historical data...
Loading historical data...
Loading historical data...
Loading historical data...

Documentation

Showing up to 5 results
|